GW1612 Weather Reports


time (UTC)temp
F
wind
direction
speed
knots
gust
knots
rain 1hr
in
rain 24hr
in
rain mn
in
humidity
%
barometer
mb
20260504070120 39 21 0.0 0.9 0.00 0.00 0.00 86 1013.1
20260504050508 41 62 0.0 0.0 0.00 0.00 0.00 80 1013.4
20260504050005 41 62 0.0 0.0 0.00 0.00 0.00 80 1013.8
20260504045502 41 63 0.0 0.0 0.00 0.00 0.00 79 1013.7
20260504044957 41 27 0.0 0.9 0.00 0.00 0.00 79 1013.9
20260504044455 41 57 0.0 0.0 0.00 0.00 0.00 78 1013.8
20260504043952 41 57 0.0 0.0 0.00 0.00 0.00 79 1013.9
20260504043449 41 57 0.0 0.0 0.00 0.00 0.00 79 1013.9
20260504042947 41 48 0.0 0.9 0.00 0.00 0.00 78 1013.8
20260504042443 41 43 0.0 0.0 0.00 0.00 0.00 78 1013.9
20260504041940 41 43 0.0 0.9 0.00 0.00 0.00 78 1014.0
20260504041436 41 47 0.0 0.9 0.00 0.00 0.00 79 1014.0
20260504040932 41 47 0.0 0.9 0.00 0.00 0.00 79 1013.9
20260504040430 41 36 0.0 0.9 0.00 0.00 0.00 79 1013.8
20260504035925 41 31 0.0 0.9 0.00 0.00 0.00 78 1013.9
20260504035423 41 31 0.0 0.0 0.00 0.00 0.00 79 1013.9
20260504034920 41 31 0.0 0.0 0.00 0.00 0.00 79 1013.9
20260504034417 41 30 0.9 0.9 0.00 0.00 0.00 79 1014.0
20260504033914 41 28 0.0 0.9 0.00 0.00 0.00 79 1013.7
20260504033412 40 33 0.0 0.0 0.00 0.00 0.00 79 1013.8
20260504032909 40 9 0.0 0.9 0.00 0.00 0.00 79 1013.8
20260504032406 41 32 0.0 0.9 0.00 0.00 0.00 79 1013.9
20260504031902 41 32 0.0 0.9 0.00 0.00 0.00 79 1013.9
20260504031359 40 33 0.0 0.0 0.00 0.00 0.00 79 1013.7
20260504030855 40 32 0.0 0.0 0.00 0.00 0.00 80 1013.7
20260504030353 40 33 0.0 0.0 0.00 0.00 0.00 79 1013.7
20260504025849 40 35 0.0 0.9 0.00 0.00 0.00 79 1013.9
20260504025346 40 37 0.0 0.9 0.00 0.00 0.00 79 1013.7
20260504024843 40 41 0.0 0.0 0.00 0.00 0.00 78 1013.8
20260504024339 41 41 0.0 0.0 0.00 0.00 0.00 77 1013.6
20260504023836 41 41 0.0 0.9 0.00 0.00 0.00 77 1013.6
20260504023333 41 42 0.0 0.9 0.00 0.00 0.00 76 1013.6
20260504022828 41 42 0.0 0.9 0.00 0.00 0.00 77 1013.5
20260504022326 42 42 0.0 0.0 0.00 0.00 0.00 74 1013.7
20260504021822 42 42 0.0 0.0 0.00 0.00 0.00 74 1013.7
20260504021320 42 42 0.0 0.9 0.00 0.00 0.00 74 1013.5
20260504020817 43 62 0.0 0.0 0.00 0.00 0.00 71 1013.8
20260504020313 43 62 0.0 0.0 0.00 0.00 0.00 71 1013.7
20260504015809 43 62 0.0 0.9 0.00 0.00 0.00 73 1013.7
20260504015305 43 69 0.0 0.0 0.00 0.00 0.00 73 1013.7
20260504014801 43 61 0.0 0.0 0.00 0.00 0.00 69 1013.7
20260504014258 44 60 0.0 0.0 0.00 0.00 0.00 70 1013.7
20260504013755 44 61 0.0 0.0 0.00 0.00 0.00 71 1013.7
20260504013253 44 60 0.0 0.0 0.00 0.00 0.00 70 1013.6
20260504012749 45 60 0.0 0.0 0.00 0.00 0.00 68 1013.5
20260504012247 45 61 0.0 0.0 0.00 0.00 0.00 66 1013.5
20260504011744 46 60 0.0 0.0 0.00 0.00 0.00 63 1013.4
20260504011241 46 62 0.0 0.9 0.00 0.00 0.00 64 1013.3
20260504010737 46 62 0.0 0.0 0.00 0.00 0.00 64 1013.3
20260504010232 47 62 0.0 0.0 0.00 0.00 0.00 59 1013.2
20260504005730 47 62 0.0 0.9 0.00 0.00 0.00 61 1013.2
20260504005227 47 62 0.0 0.0 0.00 0.00 0.00 58 1013.0
20260504004724 48 62 0.0 0.0 0.00 0.00 0.00 57 1013.1
20260504004221 48 62 0.9 0.9 0.00 0.00 0.00 57 1013.1
20260504003718 49 52 0.0 0.0 0.00 0.00 0.00 55 1013.0
20260504003215 49 49 0.0 0.9 0.00 0.00 0.00 56 1012.9
20260504002711 49 51 0.0 0.9 0.00 0.00 0.00 53 1013.0
20260504002208 50 62 0.9 0.9 0.00 0.00 0.00 54 1012.9
20260504001706 50 76 0.0 0.9 0.00 0.00 0.00 54 1012.9
20260504001203 51 65 0.0 1.7 0.00 0.00 0.00 51 1012.7
20260504000700 51 41 0.9 2.6 0.00 0.00 0.00 47 1012.8
20260504000157 51 2 1.7 2.6 0.00 0.00 0.00 49 1012.8
20260503235655 51 34 1.7 2.6 0.00 0.00 0.00 50 1012.9
20260503235151 51 32 0.9 2.6 0.00 0.00 0.00 47 1012.9
20260503234649 51 354 0.9 0.9 0.00 0.00 0.00 46 1012.7
20260503234147 51 45 0.0 0.9 0.00 0.00 0.00 50 1012.6
20260503233644 52 54 0.9 1.7 0.00 0.00 0.00 46 1012.5
20260503233139 52 13 0.9 7.0 0.00 0.00 0.00 47 1012.4
20260503232636 52 45 0.0 1.7 0.00 0.00 0.00 44 1012.3
20260503232134 53 68 0.9 0.9 0.00 0.00 0.00 47 1012.2
20260503231632 53 98 0.9 4.3 0.00 0.00 0.00 45 1012.3
20260503231128 53 311 0.9 1.7 0.00 0.00 0.00 43 1012.1
20260503230625 54 275 1.7 4.3 0.00 0.00 0.00 43 1012.2
20260503230122 54 21 0.0 5.2 0.00 0.00 0.00 40 1012.1
20260503225620 54 320 1.7 1.7 0.00 0.00 0.00 38 1012.1
20260503225119 54 329 0.9 0.9 0.00 0.00 0.00 38 1012.2
20260503224617 54 40 0.9 2.6 0.00 0.00 0.00 39 1012.0
20260503224115 54 236 2.6 4.3 0.00 0.00 0.00 37 1011.9
20260503223612 54 17 1.7 2.6 0.00 0.00 0.00 37 1012.1
20260503223108 54 357 2.6 5.2 0.00 0.00 0.00 35 1012.0
20260503222606 54 121 0.9 4.3 0.00 0.00 0.00 36 1011.8
20260503222103 54 325 1.7 2.6 0.00 0.00 0.00 37 1011.8
20260503221602 55 33 3.5 4.3 0.00 0.00 0.00 34 1011.8
20260503221059 55 55 0.0 4.3 0.00 0.00 0.00 35 1011.7
20260503220555 55 95 0.9 4.3 0.00 0.00 0.00 32 1011.9
20260503220052 55 5 3.5 7.8 0.00 0.00 0.00 33 1011.9
20260503215549 55 47 0.9 2.6 0.00 0.00 0.00 33 1011.7
20260503215046 57 259 2.6 6.1 0.00 0.00 0.00 31 1011.8
20260503214544 57 338 3.5 7.8 0.00 0.00 0.00 31 1011.7
20260503214040 57 26 0.0 2.6 0.00 0.00 0.00 30 1011.7
20260503213539 57 322 2.6 11.3 0.00 0.00 0.00 30 1011.6
20260503213035 58 258 5.2 7.0 0.00 0.00 0.00 27 1011.6
20260503212533 58 62 0.9 8.7 0.00 0.00 0.00 33 1011.8
20260503212030 58 29 1.7 2.6 0.00 0.00 0.00 29 1011.7
20260503211527 57 340 0.9 4.3 0.00 0.00 0.00 30 1011.8
20260503211022 57 269 4.3 6.1 0.00 0.00 0.00 31 1011.5
20260503210519 58 289 2.6 2.6 0.00 0.00 0.00 30 1011.5
20260503210015 58 25 0.9 2.6 0.00 0.00 0.00 32 1011.6
20260503205512 58 41 2.6 4.3 0.00 0.00 0.00 29 1011.4
20260503205008 57 52 0.9 5.2 0.00 0.00 0.00 32 1011.7
20260503204506 56 21 0.9 2.6 0.00 0.00 0.00 32 1011.8
20260503204002 54 10 1.7 2.6 0.00 0.00 0.00 35 1011.9
20260503203500 56 27 2.6 6.1 0.00 0.00 0.00 30 1011.8
20260503202956 56 330 1.7 2.6 0.00 0.00 0.00 30 1011.8
20260503202454 55 247 4.3 7.0 0.00 0.00 0.00 32 1011.9
20260503201953 56 347 5.2 6.1 0.00 0.00 0.00 31 1011.9
20260503201450 55 288 3.5 6.1 0.00 0.00 0.00 32 1011.9
20260503200947 56 281 2.6 8.7 0.00 0.00 0.00 33 1011.9
20260503200443 57 313 3.5 7.0 0.00 0.00 0.00 33 1012.0
20260503195940 58 271 1.7 7.0 0.00 0.00 0.00 36 1012.0
20260503195438 56 262 1.7 7.0 0.00 0.00 0.00 36 1012.1
20260503194934 56 297 5.2 9.6 0.00 0.00 0.00 32 1012.1
20260503194431 55 23 2.6 7.0 0.00 0.00 0.00 32 1012.0
20260503193926 57 322 3.5 5.2 0.00 0.00 0.00 32 1012.0
20260503193422 56 50 6.1 13.0 0.00 0.00 0.00 33 1012.2
20260503192917 56 23 2.6 5.2 0.00 0.00 0.00 34 1012.3
20260503192414 55 350 6.1 7.8 0.00 0.00 0.00 33 1012.4
20260503191910 55 188 1.7 2.6 0.00 0.00 0.00 39 1012.3
20260503191408 55 161 0.0 2.6 0.00 0.00 0.00 38 1012.7
20260503190904 53 302 2.6 7.8 0.00 0.00 0.00 36 1012.8
20260503190402 53 122 3.5 5.2 0.00 0.00 0.00 38 1012.7
20260503185858 53 279 1.7 7.0 0.00 0.00 0.00 37 1012.9
20260503185354 54 258 6.1 8.7 0.00 0.00 0.00 35 1012.7
20260503184854 53 311 4.3 6.1 0.00 0.00 0.00 36 1013.0
20260503184350 53 102 1.7 8.7 0.00 0.00 0.00 37 1013.0
20260503183846 52 359 0.9 5.2 0.00 0.00 0.00 39 1013.0
20260503183344 53 293 3.5 6.1 0.00 0.00 0.00 38 1013.0
20260503182841 52 8 1.7 6.1 0.00 0.00 0.00 40 1013.1
20260503182340 52 272 4.3 6.1 0.00 0.00 0.00 37 1013.0
20260503181837 52 358 4.3 5.2 0.00 0.00 0.00 37 1013.3
20260503181334 51 354 3.5 7.8 0.00 0.00 0.00 40 1013.3
20260503180830 50 43 1.7 5.2 0.00 0.00 0.00 40 1013.3
20260503180328 52 277 3.5 5.2 0.00 0.00 0.00 40 1013.2
20260503175824 52 27 2.6 5.2 0.00 0.00 0.00 41 1013.5
20260503175323 50 31 1.7 8.7 0.00 0.00 0.00 42 1013.4
20260503174817 50 35 2.6 6.1 0.00 0.00 0.00 41 1013.5
20260503174316 50 246 3.5 7.0 0.00 0.00 0.00 40 1013.3
20260503173811 50 177 0.9 2.6 0.00 0.00 0.00 41 1013.5
20260503173307 50 71 0.0 1.7 0.00 0.00 0.00 40 1013.5
20260503172805 51 291 2.6 7.0 0.00 0.00 0.00 40 1013.5
20260503172304 50 279 3.5 4.3 0.00 0.00 0.00 42 1013.5
20260503171758 50 281 3.5 5.2 0.00 0.00 0.00 41 1013.4
20260503171255 48 42 1.7 5.2 0.00 0.00 0.00 42 1013.6
20260503170752 48 8 1.7 7.0 0.00 0.00 0.00 42 1013.6
20260503170249 48 322 2.6 9.6 0.00 0.00 0.00 42 1013.6
20260503160211 49 315 1.7 4.3 0.00 0.00 0.00 40 1013.8
20260503150641 48 33 0.0 1.7 0.00 0.00 0.00 45 1013.7
20260503150137 47 11 1.7 4.3 0.00 0.00 0.00 42 1013.8
20260503131031 45 15 1.7 2.6 0.00 0.00 0.00 59 1014.1
20260503130528 45 292 1.7 2.6 0.00 0.00 0.00 58 1014.0
20260503110418 40 322 1.7 1.7 0.00 0.00 0.00 71 1013.5
20260503090304 37 44 0.9 0.9 0.00 0.00 0.00 80 1013.2
20260503081231 36 27 0.9 0.9 0.00 0.00 0.00 83 1013.4
20260503080726 35 61 0.0 0.9 0.00 0.00 0.00 84 1013.8
20260503080224 35 30 0.0 0.0 0.00 0.00 0.00 85 1013.6
20260503072701 34 45 0.0 0.9 0.00 0.00 0.00 85 1013.7
20260503072157 34 60 0.9 0.9 0.00 0.00 0.00 85 1013.8
20260503071654 34 54 0.9 1.7 0.00 0.00 0.00 85 1013.8